OMD8 KCOS-KABQ

Flight info

Callsign OMD8
Flight time 0h 52m
Altitude 17000
Route DRAKE V83 PUB/N0453F360
Aircraft A400/H-SDE3FGHIRWY/LB1

Departure

Time 2026-04-26 20:37
Airport City of Colorado Springs Municipal Airport (KCOS)

Arrival

Time 2026-04-26 21:29
Airport Albuquerque International Sunport (KABQ)
Time Latitude Longitude Altitude Speed Heading
2026-04-26 19:59 38.82197 -104.71046 6202 ft 0 kts 188°
2026-04-26 20:16 38.82191 -104.71047 6203 ft 0 kts 188°
2026-04-26 20:17 38.82186 -104.71050 6201 ft 1 kts 204°
2026-04-26 20:34 38.82185 -104.71050 6203 ft 1 kts 206°
2026-04-26 20:34 38.82183 -104.71055 6203 ft 1 kts 225°
2026-04-26 20:34 38.82180 -104.71069 6202 ft 4 kts 253°
2026-04-26 20:34 38.82197 -104.71127 6202 ft 10 kts 310°
2026-04-26 20:35 38.82266 -104.71212 6203 ft 20 kts 312°
2026-04-26 20:35 38.82377 -104.71365 6203 ft 23 kts 308°
2026-04-26 20:35 38.82397 -104.71428 6203 ft 3 kts 270°
2026-04-26 20:35 38.82397 -104.71439 6204 ft 2 kts 270°
2026-04-26 20:36 38.82397 -104.71475 6204 ft 6 kts 270°
2026-04-26 20:36 38.82396 -104.71540 6205 ft 8 kts 264°
2026-04-26 20:36 38.82371 -104.71583 6205 ft 2 kts 205°
2026-04-26 20:36 38.82322 -104.71590 6205 ft 21 kts 181°
2026-04-26 20:37 38.81754 -104.71592 6202 ft 135 kts 180°
2026-04-26 20:37 38.80595 -104.71586 6404 ft 192 kts 178°
2026-04-26 20:37 38.79144 -104.71558 7001 ft 222 kts 178°
2026-04-26 20:37 38.77519 -104.71355 7545 ft 249 kts 163°
2026-04-26 20:38 38.76017 -104.70100 7811 ft 269 kts 139°
2026-04-26 20:38 38.74778 -104.68251 7953 ft 277 kts 129°
2026-04-26 20:38 38.73731 -104.66112 8141 ft 293 kts 124°
2026-04-26 20:38 38.72702 -104.63801 8929 ft 299 kts 124°
2026-04-26 20:39 38.71639 -104.61471 9797 ft 305 kts 126°
2026-04-26 20:39 38.70896 -104.59928 10292 ft 309 kts 128°
2026-04-26 20:39 38.69308 -104.56837 11294 ft 315 kts 130°
2026-04-26 20:39 38.68046 -104.54513 12051 ft 320 kts 131°
2026-04-26 20:40 38.66754 -104.52197 12851 ft 325 kts 132°
2026-04-26 20:40 38.65423 -104.49839 13622 ft 330 kts 133°
2026-04-26 20:40 38.64063 -104.47441 14331 ft 334 kts 133°
2026-04-26 20:40 38.63137 -104.45807 14849 ft 337 kts 133°
2026-04-26 20:41 38.61775 -104.43402 15599 ft 340 kts 133°
2026-04-26 20:41 38.60108 -104.41343 16310 ft 327 kts 156°
2026-04-26 20:41 38.58017 -104.40437 16775 ft 315 kts 179°
2026-04-26 20:41 38.55833 -104.40415 16918 ft 317 kts 190°
2026-04-26 20:42 38.53579 -104.40805 16936 ft 336 kts 194°
2026-04-26 20:42 38.51224 -104.41297 16935 ft 347 kts 193°
2026-04-26 20:42 38.48819 -104.41721 16940 ft 350 kts 191°
2026-04-26 20:42 38.46384 -104.42035 16950 ft 352 kts 189°
2026-04-26 20:43 38.43930 -104.42256 16789 ft 353 kts 188°
2026-04-26 20:43 38.41504 -104.42407 16717 ft 352 kts 187°
2026-04-26 20:43 38.39055 -104.42525 16726 ft 352 kts 187°
2026-04-26 20:43 38.36607 -104.42630 16734 ft 352 kts 187°
2026-04-26 20:44 38.34147 -104.42733 16742 ft 353 kts 187°
2026-04-26 20:44 38.31702 -104.42842 17081 ft 356 kts 187°
2026-04-26 20:44 38.29277 -104.43238 17597 ft 347 kts 201°
2026-04-26 20:44 38.27181 -104.44741 17983 ft 345 kts 219°
2026-04-26 20:45 38.25369 -104.46750 17990 ft 347 kts 223°
2026-04-26 20:45 38.23590 -104.48824 17777 ft 346 kts 223°
2026-04-26 20:45 38.21794 -104.50866 17739 ft 345 kts 223°
2026-04-26 20:45 38.20006 -104.52847 17735 ft 345 kts 222°
2026-04-26 20:46 38.18179 -104.54833 17724 ft 345 kts 221°
2026-04-26 20:46 38.16347 -104.56802 17715 ft 345 kts 221°
2026-04-26 20:46 38.14502 -104.58772 17698 ft 346 kts 221°
2026-04-26 20:46 38.12647 -104.60745 17932 ft 348 kts 221°
2026-04-26 20:47 38.10794 -104.62709 18379 ft 347 kts 221°
2026-04-26 20:47 38.09565 -104.64011 18603 ft 348 kts 221°
2026-04-26 20:47 38.07061 -104.66661 18799 ft 352 kts 221°
2026-04-26 20:47 38.05197 -104.68630 18664 ft 352 kts 221°
2026-04-26 20:48 38.03323 -104.70608 18624 ft 350 kts 221°
2026-04-26 20:48 38.01454 -104.72579 18614 ft 349 kts 221°
2026-04-26 20:48 37.99575 -104.74559 18606 ft 348 kts 221°
2026-04-26 20:48 37.97714 -104.76519 18605 ft 347 kts 221°
2026-04-26 20:49 37.95858 -104.78473 18604 ft 347 kts 221°
2026-04-26 20:49 37.94021 -104.80406 18610 ft 346 kts 221°
2026-04-26 20:49 37.92167 -104.82355 18612 ft 346 kts 221°
2026-04-26 20:49 37.90313 -104.84302 18615 ft 345 kts 222°
2026-04-26 20:50 37.88456 -104.86252 18619 ft 345 kts 221°
2026-04-26 20:50 37.86628 -104.88171 18625 ft 345 kts 222°
2026-04-26 20:50 37.84776 -104.90111 18626 ft 345 kts 222°
2026-04-26 20:50 37.82924 -104.92052 18634 ft 345 kts 222°
2026-04-26 20:51 37.81073 -104.93990 18636 ft 345 kts 222°
2026-04-26 20:51 37.79239 -104.95909 18643 ft 345 kts 222°
2026-04-26 20:51 37.77392 -104.97841 18648 ft 344 kts 222°
2026-04-26 20:51 37.75530 -104.99786 18827 ft 348 kts 222°
2026-04-26 20:52 37.73668 -105.01730 19312 ft 345 kts 222°
2026-04-26 20:52 37.71810 -105.03669 19725 ft 346 kts 222°
2026-04-26 20:52 37.69947 -105.05612 20086 ft 348 kts 222°
2026-04-26 20:52 37.68103 -105.07533 20489 ft 348 kts 222°
2026-04-26 20:53 37.66227 -105.09487 20799 ft 350 kts 222°
2026-04-26 20:53 37.64338 -105.11454 20794 ft 353 kts 222°
2026-04-26 20:53 37.62442 -105.13425 20684 ft 351 kts 222°
2026-04-26 20:53 37.60559 -105.15381 20684 ft 350 kts 222°
2026-04-26 20:54 37.58704 -105.17307 20696 ft 349 kts 222°
2026-04-26 20:54 37.56820 -105.19263 20682 ft 348 kts 223°
2026-04-26 20:54 37.54960 -105.21191 20695 ft 348 kts 223°
2026-04-26 20:54 37.53095 -105.23125 20698 ft 347 kts 223°
2026-04-26 20:55 37.51223 -105.25063 20694 ft 347 kts 223°
2026-04-26 20:55 37.49359 -105.26993 20701 ft 346 kts 223°
2026-04-26 20:55 37.47501 -105.28915 20705 ft 346 kts 223°
2026-04-26 20:55 37.45645 -105.30832 20705 ft 345 kts 223°
2026-04-26 20:56 37.43785 -105.32755 20704 ft 344 kts 223°
2026-04-26 20:56 37.41957 -105.34641 20704 ft 344 kts 223°
2026-04-26 20:56 37.40108 -105.36549 20707 ft 343 kts 223°
2026-04-26 20:56 37.38255 -105.38459 20706 ft 343 kts 222°
2026-04-26 20:57 37.36405 -105.40366 20711 ft 343 kts 223°
2026-04-26 20:57 37.34556 -105.42269 20707 ft 344 kts 222°
2026-04-26 20:57 37.32699 -105.44180 20712 ft 344 kts 222°
2026-04-26 20:57 37.30867 -105.46065 20716 ft 344 kts 222°
2026-04-26 20:58 37.29008 -105.47974 20720 ft 344 kts 222°
2026-04-26 20:58 37.27153 -105.49880 20722 ft 344 kts 222°
2026-04-26 20:58 37.25294 -105.51788 20730 ft 344 kts 222°
2026-04-26 20:58 37.23430 -105.53699 20730 ft 344 kts 222°
2026-04-26 20:59 37.21595 -105.55580 20729 ft 345 kts 222°
2026-04-26 20:59 37.19736 -105.57483 20728 ft 345 kts 222°
2026-04-26 20:59 37.17873 -105.59390 20725 ft 345 kts 222°
2026-04-26 20:59 37.16011 -105.61295 20720 ft 345 kts 222°
2026-04-26 21:00 37.14145 -105.63202 20724 ft 345 kts 222°
2026-04-26 21:00 37.12287 -105.65100 20720 ft 344 kts 222°
2026-04-26 21:00 37.10453 -105.66973 20716 ft 344 kts 222°
2026-04-26 21:00 37.08584 -105.68880 20720 ft 344 kts 222°
2026-04-26 21:01 37.06725 -105.70775 20726 ft 344 kts 222°
2026-04-26 21:01 37.04892 -105.72642 20724 ft 344 kts 222°
2026-04-26 21:01 37.03036 -105.74532 20725 ft 343 kts 222°
2026-04-26 21:01 37.01177 -105.76424 20731 ft 343 kts 222°
2026-04-26 21:02 36.99318 -105.78314 20733 ft 343 kts 222°
2026-04-26 21:02 36.97466 -105.80197 20733 ft 342 kts 222°
2026-04-26 21:02 36.95641 -105.82050 20734 ft 342 kts 222°
2026-04-26 21:02 36.93790 -105.83929 20735 ft 342 kts 221°
2026-04-26 21:03 36.91941 -105.85804 20733 ft 342 kts 221°
2026-04-26 21:03 36.90087 -105.87684 20731 ft 342 kts 222°
2026-04-26 21:03 36.88237 -105.89557 20731 ft 342 kts 221°
2026-04-26 21:03 36.86410 -105.91407 20739 ft 342 kts 221°
2026-04-26 21:04 36.84563 -105.93275 20735 ft 341 kts 221°
2026-04-26 21:04 36.82717 -105.95142 20736 ft 341 kts 221°
2026-04-26 21:04 36.80872 -105.97006 20736 ft 341 kts 221°
2026-04-26 21:04 36.79025 -105.98871 20735 ft 340 kts 221°
2026-04-26 21:05 36.77204 -106.00709 20734 ft 340 kts 221°
2026-04-26 21:05 36.75362 -106.02566 20734 ft 340 kts 222°
2026-04-26 21:05 36.73512 -106.04432 20733 ft 340 kts 222°
2026-04-26 21:05 36.71674 -106.06283 20737 ft 340 kts 222°
2026-04-26 21:06 36.69831 -106.08138 20732 ft 340 kts 222°
2026-04-26 21:06 36.68010 -106.09970 20735 ft 340 kts 222°
2026-04-26 21:06 36.66167 -106.11838 20725 ft 341 kts 219°
2026-04-26 21:06 36.64000 -106.13073 20734 ft 349 kts 205°
2026-04-26 21:07 36.61678 -106.14007 20729 ft 350 kts 203°
2026-04-26 21:07 36.59350 -106.14923 20719 ft 350 kts 204°
2026-04-26 21:07 36.57066 -106.15859 20722 ft 350 kts 205°
2026-04-26 21:07 36.54762 -106.16837 20712 ft 348 kts 205°
2026-04-26 21:08 36.52464 -106.17834 20710 ft 348 kts 205°
2026-04-26 21:08 36.50172 -106.18840 20703 ft 349 kts 205°
2026-04-26 21:08 36.47904 -106.19841 20697 ft 349 kts 205°
2026-04-26 21:08 36.45617 -106.20855 20691 ft 349 kts 205°
2026-04-26 21:09 36.43328 -106.21870 20692 ft 350 kts 206°
2026-04-26 21:09 36.41034 -106.22888 20576 ft 346 kts 205°
2026-04-26 21:09 36.38827 -106.23861 20036 ft 330 kts 205°
2026-04-26 21:09 36.36664 -106.24820 19732 ft 331 kts 205°
2026-04-26 21:10 36.34492 -106.25788 19672 ft 342 kts 205°
2026-04-26 21:10 36.32224 -106.26795 19674 ft 347 kts 205°
2026-04-26 21:10 36.29930 -106.27807 19670 ft 350 kts 205°
2026-04-26 21:10 36.27635 -106.28817 19661 ft 350 kts 205°
2026-04-26 21:11 36.25334 -106.29829 19660 ft 350 kts 205°
2026-04-26 21:11 36.23065 -106.30827 19664 ft 350 kts 205°
2026-04-26 21:11 36.20764 -106.31839 19679 ft 350 kts 205°
2026-04-26 21:11 36.18460 -106.32853 19690 ft 350 kts 205°
2026-04-26 21:12 36.16155 -106.33866 19702 ft 351 kts 205°
2026-04-26 21:12 36.13854 -106.34876 19714 ft 350 kts 206°
2026-04-26 21:12 36.11553 -106.35882 19724 ft 350 kts 205°
2026-04-26 21:12 36.09285 -106.36864 19738 ft 349 kts 205°
2026-04-26 21:13 36.06987 -106.37856 19751 ft 349 kts 205°
2026-04-26 21:13 36.04685 -106.38850 19759 ft 350 kts 206°
2026-04-26 21:13 36.02380 -106.39844 19770 ft 350 kts 206°
2026-04-26 21:13 36.00079 -106.40836 19786 ft 350 kts 206°
2026-04-26 21:14 35.97789 -106.41823 19783 ft 348 kts 206°
2026-04-26 21:14 35.95499 -106.42808 19794 ft 348 kts 206°
2026-04-26 21:14 35.93235 -106.43782 19793 ft 348 kts 206°
2026-04-26 21:14 35.90948 -106.44759 19786 ft 347 kts 205°
2026-04-26 21:15 35.88650 -106.45710 19787 ft 348 kts 205°
2026-04-26 21:15 35.86358 -106.46647 19748 ft 342 kts 205°
2026-04-26 21:15 35.84163 -106.47534 19127 ft 326 kts 205°
2026-04-26 21:15 35.82001 -106.48417 17879 ft 331 kts 205°
2026-04-26 21:16 35.79816 -106.49318 16441 ft 337 kts 204°
2026-04-26 21:16 35.77585 -106.50231 15203 ft 338 kts 204°
2026-04-26 21:16 35.75364 -106.51135 14446 ft 334 kts 204°
2026-04-26 21:16 35.73154 -106.52035 14037 ft 332 kts 203°
2026-04-26 21:17 35.70969 -106.52924 13911 ft 326 kts 203°
2026-04-26 21:17 35.68908 -106.53755 13877 ft 297 kts 203°
2026-04-26 21:17 35.66983 -106.54533 13872 ft 290 kts 204°
2026-04-26 21:17 35.65089 -106.55309 13859 ft 291 kts 204°
2026-04-26 21:18 35.63163 -106.56097 13844 ft 291 kts 204°
2026-04-26 21:18 35.61246 -106.56878 13820 ft 290 kts 204°
2026-04-26 21:18 35.59335 -106.57694 13823 ft 289 kts 207°
2026-04-26 21:18 35.57471 -106.58649 13819 ft 288 kts 208°
2026-04-26 21:19 35.55635 -106.59639 13828 ft 289 kts 208°
2026-04-26 21:19 35.53814 -106.60626 13822 ft 289 kts 209°
2026-04-26 21:19 35.51967 -106.61627 13825 ft 289 kts 208°
2026-04-26 21:19 35.50132 -106.62617 13810 ft 284 kts 208°
2026-04-26 21:20 35.48334 -106.63585 13816 ft 280 kts 208°
2026-04-26 21:20 35.46554 -106.64545 13830 ft 279 kts 208°
2026-04-26 21:20 35.44776 -106.65504 13847 ft 279 kts 208°
2026-04-26 21:20 35.43031 -106.66443 13824 ft 270 kts 209°
2026-04-26 21:21 35.41330 -106.67356 13299 ft 267 kts 208°
2026-04-26 21:21 35.39613 -106.68283 12581 ft 270 kts 208°
2026-04-26 21:21 35.37887 -106.69213 11955 ft 270 kts 208°
2026-04-26 21:21 35.36160 -106.70125 11304 ft 271 kts 205°
2026-04-26 21:22 35.34344 -106.70705 10744 ft 276 kts 193°
2026-04-26 21:22 35.32421 -106.70808 10235 ft 277 kts 186°
2026-04-26 21:22 35.30495 -106.70722 9668 ft 277 kts 183°
2026-04-26 21:23 35.26710 -106.70424 9005 ft 259 kts 183°
2026-04-26 21:23 35.24975 -106.70268 9000 ft 239 kts 184°
2026-04-26 21:23 35.23345 -106.70126 9013 ft 233 kts 184°
2026-04-26 21:23 35.21755 -106.69995 9025 ft 231 kts 185°
2026-04-26 21:24 35.20151 -106.69864 9038 ft 230 kts 184°
2026-04-26 21:24 35.18551 -106.69666 9036 ft 234 kts 175°
2026-04-26 21:24 35.17126 -106.68620 8648 ft 254 kts 139°
2026-04-26 21:24 35.16138 -106.66767 8202 ft 263 kts 126°
2026-04-26 21:25 35.15288 -106.64793 7989 ft 262 kts 125°
2026-04-26 21:25 35.14448 -106.62861 7974 ft 250 kts 126°
2026-04-26 21:25 35.13637 -106.61051 7979 ft 235 kts 127°
2026-04-26 21:25 35.12868 -106.59382 7848 ft 224 kts 129°
2026-04-26 21:26 35.12087 -106.57737 7510 ft 224 kts 129°
2026-04-26 21:26 35.11297 -106.56097 7201 ft 223 kts 130°
2026-04-26 21:26 35.10508 -106.54466 7014 ft 223 kts 129°
2026-04-26 21:26 35.09714 -106.52885 6987 ft 213 kts 135°
2026-04-26 21:27 35.08773 -106.51630 6998 ft 190 kts 155°
2026-04-26 21:27 35.07669 -106.51015 6959 ft 165 kts 176°
2026-04-26 21:27 35.06587 -106.50816 6810 ft 151 kts 194°
2026-04-26 21:27 35.05624 -106.51164 6594 ft 143 kts 216°
2026-04-26 21:28 35.04891 -106.51943 6390 ft 138 kts 235°
2026-04-26 21:28 35.04472 -106.52986 6132 ft 138 kts 251°
2026-04-26 21:28 35.04376 -106.54142 6001 ft 130 kts 263°
2026-04-26 21:28 35.04390 -106.55145 5966 ft 110 kts 266°
2026-04-26 21:29 35.04407 -106.56038 5787 ft 101 kts 265°
2026-04-26 21:29 35.04418 -106.56620 5699 ft 109 kts 263°
2026-04-26 21:29 35.04419 -106.57450 5423 ft 91 kts 259°
2026-04-26 21:29 35.04402 -106.57960 5367 ft 8 kts 269°
2026-04-26 21:30 35.04402 -106.57991 5368 ft 5 kts 271°
2026-04-26 21:30 35.04403 -106.58061 5367 ft 12 kts 270°
2026-04-26 21:30 35.04407 -106.58183 5367 ft 17 kts 276°
2026-04-26 21:30 35.04472 -106.58277 5366 ft 17 kts 358°
2026-04-26 21:31 35.04574 -106.58347 5364 ft 18 kts 282°
2026-04-26 21:31 35.04575 -106.58513 5362 ft 21 kts 266°
2026-04-26 21:31 35.04576 -106.58686 5361 ft 20 kts 272°
2026-04-26 21:31 35.04621 -106.58802 5357 ft 18 kts 346°
2026-04-26 21:32 35.04743 -106.58839 5356 ft 18 kts 333°
2026-04-26 21:32 35.04761 -106.58897 5356 ft 4 kts 211°
2026-04-26 21:32 35.04735 -106.58933 5358 ft 8 kts 231°
2026-04-26 21:32 35.04721 -106.58951 5359 ft 0 kts 225°